Wind_Speed
9 9 10 10 9 8 8 8 8 8 8 9 9 10 11 12 12 13 14 14 14 15 16 17 19 19 19 19 19 21 20 20 19 18 17 16 15 15 14 13 12 11 10
8 9 9 9 8 9 9 9 8 8 8 9 9 10 10 11 12 13 14 15 15 15 16 17 19 19 20 21 20 21 22 23 22 21 20 19 18 17 16 15 14 13 12
8 8 8 8 8 9 9 9 8 8 8 8 9 9 10 11 12 13 14 15 16 16 16 17 19 20 20 20 21 22 23 23 24 24 23 22 21 20 19 18 17 16 15
7 7 7 7 7 7 7 7 8 8 8 9 9 10 11 11 13 14 15 16 16 17 18 18 19 20 21 21 21 23 24 24 24 26 27 26 25 23 22 21 20 19 18
5 5 5 6 6 6 7 7 8 8 9 9 10 11 11 12 13 14 15 16 17 18 19 19 20 20 21 21 22 23 23 25 25 26 28 29 28 27 26 25 23 22 21
4 4 4 5 6 6 7 7 8 8 9 10 11 11 12 13 14 14 15 16 17 18 19 20 21 21 22 22 22 23 25 25 27 27 27 28 29 30 29 28 27 25 24
3 3 4 5 5 6 7 7 8 9 10 11 12 13 13 14 15 15 16 17 17 19 20 21 22 23 24 24 24 24 26 27 27 29 28 29 30 31 32 32 31 29 27
2 3 3 5 5 6 7 8 9 10 11 12 13 13 14 14 15 16 17 18 19 20 21 21 22 23 24 25 25 25 27 28 29 29 29 30 30 31 32 33 33 32 31
2 3 4 5 6 8 8 9 10 10 11 12 13 14 15 15 16 17 18 19 20 21 22 23 23 24 25 26 26 26 28 29 29 29 29 30 31 31 32 33 34 34 33
2 3 4 5 7 8 9 10 10 11 12 13 13 14 15 16 16 17 18 19 20 21 22 23 24 25 26 27 28 28 29 30 31 31 31 30 32 32 32 33 34 35 36
3 3 4 6 8 9 10 10 11 12 13 13 14 15 16 17 18 19 20 20 21 22 23 24 25 26 27 28 29 30 31 31 32 32 33 33 33 34 34 33 35 35 37
4 4 5 7 9 9 10 11 12 13 14 15 16 16 17 17 18 19 20 21 22 23 24 25 26 27 28 29 31 31 32 33 33 34 35 35 35 35 35 34 35 36 37
5 6 7 8 9 9 11 12 13 14 15 16 17 18 18 18 19 20 21 22 23 24 24 25 26 27 28 30 31 33 34 35 35 36 36 37 37 37 38 38 37 37 38
7 8 9 9 10 11 13 14 15 15 16 17 18 19 19 20 20 21 22 23 24 25 26 26 26 27 28 30 32 33 35 36 37 37 37 38 39 39 41 41 40 40 40
9 10 11 11 13 14 15 16 16 17 18 19 20 20 21 21 22 22 23 23 24 25 26 27 27 27 28 29 31 33 34 36 38 39 39 40 40 41 41 43 43 42 42
12 12 13 14 15 16 17 18 19 19 20 21 21 22 22 23 23 24 24 25 25 26 26 28 29 29 29 29 30 32 34 35 37 39 41 42 42 43 43 44 45 44 44
15 16 16 17 18 19 19 20 20 21 22 23 23 23 24 25 25 25 25 25 26 27 27 28 30 30 30 31 31 31 33 35 37 39 40 42 44 44 45 45 46 46 47
18 19 19 20 20 21 22 22 22 23 23 24 25 25 25 26 26 26 27 27 27 28 28 29 30 31 31 31 31 32 33 34 36 38 39 42 43 45 46 46 46 47 48
21 21 22 22 23 23 24 24 24 25 26 26 26 27 27 27 28 28 29 29 29 29 29 29 30 31 32 32 32 32 32 33 35 36 38 40 42 44 45 47 47 48 48
23 24 24 25 25 26 26 26 27 27 27 28 28 28 29 29 29 30 30 31 31 31 31 31 31 32 33 33 33 33 33 33 34 35 37 39 40 42 44 46 47 48 49
25 26 26 27 27 28 28 28 28 29 29 29 29 30 30 31 31 32 32 32 33 33 33 33 33 33 34 34 34 34 34 34 34 35 37 38 40 41 43 45 46 47 48
27 27 28 29 29 29 30 30 30 31 31 31 31 31 32 32 33 33 34 34 34 34 34 34 33 34 34 35 35 35 35 35 35 36 37 38 39 40 42 43 45 46 47
29 30 30 30 30 30 31 32 32 32 32 33 33 33 34 34 35 35 35 35 35 36 36 36 35 35 35 36 36 36 36 36 36 36 37 37 38 39 41 42 43 45 47
30 31 31 32 32 32 32 33 34 34 34 34 35 36 36 36 37 37 37 37 37 37 37 37 36 36 36 37 37 37 37 36 36 36 37 37 38 39 40 41 42 43 45
31 32 32 33 33 33 34 35 36 37 36 36 37 37 38 38 38 39 39 39 38 38 38 38 37 37 37 37 38 38 38 38 37 37 38 38 38 39 39 40 41 42 44
34 34 35 36 35 35 36 37 39 39 39 39 39 40 40 40 40 40 40 40 40 40 40 39 39 38 38 38 38 38 38 39 38 37 38 39 39 40 40 40 41 42 43
Wind_Direction
286 291 292 292 295 297 302 305 299 291 288 277 273 269 265 263 261 259 254 253 255 256 253 249 248 247 242 240 236 231 227 225 224 224 225 225 225 224 223 221 219 216 212
288 293 293 291 297 300 299 298 300 297 290 282 275 272 268 262 260 261 258 257 257 257 257 254 253 252 251 246 241 236 231 229 227 226 227 227 228 228 227 226 225 223 220
284 293 293 295 298 302 299 297 300 301 295 288 282 277 272 267 265 266 265 263 262 260 260 259 257 256 255 251 245 238 235 234 232 229 228 228 229 230 230 229 229 228 226
289 299 301 302 303 308 311 309 305 305 299 291 286 284 277 273 269 269 268 266 265 262 260 260 260 259 258 255 249 242 238 238 239 235 231 230 229 230 230 231 231 231 231
293 303 306 307 305 308 315 315 309 305 301 296 293 290 285 280 276 274 272 270 267 264 262 262 261 261 260 257 251 248 245 243 242 239 235 233 232 231 231 231 232 233 233
293 310 318 319 315 319 323 318 313 312 309 307 302 296 290 285 281 277 275 273 270 267 265 263 261 261 261 258 254 249 249 248 245 241 239 236 237 235 232 232 233 233 233
295 314 327 331 328 326 323 317 313 313 311 309 304 300 295 289 285 281 278 277 273 269 267 266 264 263 260 260 257 253 251 250 248 245 242 239 239 237 235 233 233 233 234
295 319 326 325 330 328 326 322 319 316 313 310 306 302 299 295 290 285 281 278 276 273 270 268 267 265 262 261 259 256 253 252 250 250 248 244 241 239 238 235 234 234 234
291 314 320 323 326 327 325 323 319 316 313 311 308 304 301 297 293 289 285 281 277 275 273 270 268 265 263 262 260 258 255 253 251 251 251 250 246 243 241 239 237 236 235
278 307 317 320 322 325 325 322 320 318 316 314 312 309 306 302 298 294 290 286 281 277 275 273 270 267 264 262 260 259 257 254 252 251 251 251 250 247 245 241 238 238 237
269 294 308 315 319 325 325 323 319 317 318 316 314 311 308 304 300 297 294 291 286 282 278 275 272 269 266 263 262 260 259 257 255 253 252 251 249 247 248 244 240 239 238
267 284 301 312 318 321 323 323 321 318 317 316 316 313 310 307 304 300 297 294 291 287 281 277 274 270 267 265 263 261 259 259 257 255 254 253 250 248 247 247 245 243 241
275 285 295 306 313 317 318 320 319 319 317 316 316 315 312 310 308 304 302 299 295 291 287 282 277 273 270 267 265 262 260 259 258 257 255 253 251 249 247 247 247 246 244
274 282 290 299 306 310 311 314 316 315 315 315 314 314 313 311 309 306 304 301 299 295 291 287 282 277 273 271 268 265 262 259 258 257 256 254 252 251 249 248 247 246 246
273 280 287 294 301 304 306 309 312 312 313 314 313 312 312 311 309 307 305 303 301 297 294 291 287 283 278 275 272 269 266 262 259 257 256 255 253 251 250 249 248 247 246
271 281 286 291 296 300 304 306 308 309 310 312 312 311 311 311 310 308 307 305 303 300 296 293 290 286 283 280 277 274 269 266 262 260 257 255 254 253 251 249 248 248 247
273 279 285 290 294 298 301 304 306 307 308 309 310 310 310 311 310 309 309 307 304 301 298 295 292 289 286 283 280 277 273 269 265 263 260 257 255 254 252 251 249 248 247
275 280 285 289 292 295 298 300 303 304 306 308 308 309 310 310 309 308 308 307 305 303 299 295 293 291 288 285 283 280 276 272 269 265 262 260 257 255 254 252 250 249 248
278 282 286 288 291 293 296 298 301 303 305 306 306 308 308 308 308 307 307 307 306 304 301 297 293 291 289 287 285 282 279 276 271 268 265 262 260 257 255 253 252 250 248
279 283 286 288 290 292 294 297 299 301 302 304 304 306 307 307 307 306 306 306 305 304 302 299 295 291 289 287 286 284 282 278 274 271 267 264 262 259 256 254 252 251 249
280 284 286 289 290 292 293 295 297 299 300 301 302 303 305 306 305 305 305 304 304 304 302 300 296 292 289 287 285 284 282 280 277 273 270 267 263 261 258 255 253 251 250
282 285 287 290 291 291 292 294 295 298 299 300 301 302 303 304 304 304 304 303 303 303 302 300 297 292 289 287 286 284 282 281 278 275 272 268 265 262 260 257 255 252 250
283 285 287 290 291 291 293 294 295 297 299 300 300 301 302 303 303 303 303 302 303 303 302 300 297 293 290 288 287 285 283 281 279 276 273 270 267 264 262 259 257 254 251
284 287 289 289 291 291 293 294 294 296 297 299 299 300 301 302 302 301 302 302 302 301 300 299 296 293 291 289 287 285 284 281 280 278 275 271 268 266 264 262 259 256 253
284 286 289 291 291 291 291 292 294 295 296 298 299 299 300 300 300 301 301 302 301 300 299 298 296 294 291 289 287 285 284 282 280 277 274 272 269 267 266 263 260 257 254
283 285 288 290 290 290 291 292 294 295 295 297 298 298 298 298 299 299 300 300 300 299 298 297 296 294 291 289 288 286 283 282 279 276 274 272 270 268 266 263 260 258 255
Height
5892 5891 5891 5890 5890 5890 5889 5889 5889 5889 5889 5889 5889 5889 5890 5890 5890 5891 5892 5892 5893 5893 5893 5894 5894 5895 5896 5897 5899 5900 5902 5904 5906 5907 5909 5910 5912 5913 5914 5915 5916 5917 5917
5890 5889 5889 5888 5888 5888 5887 5887 5887 5887 5887 5887 5887 5887 5887 5887 5888 5888 5888 5889 5889 5890 5890 5890 5891 5891 5892 5894 5895 5896 5898 5900 5902 5904 5906 5907 5909 5911 5912 5913 5914 5915 5916
5888 5887 5887 5886 5886 5886 5885 5885 5885 5884 5884 5884 5884 5884 5884 5885 5885 5885 5885 5885 5886 5886 5886 5887 5887 5887 5887 5889 5890 5892 5894 5896 5898 5900 5902 5904 5906 5908 5909 5911 5912 5914 5915
5886 5886 5885 5884 5884 5884 5883 5883 5883 5882 5882 5882 5882 5882 5882 5882 5882 5882 5882 5882 5882 5882 5883 5883 5883 5883 5883 5884 5885 5887 5889 5891 5893 5895 5897 5899 5901 5904 5906 5908 5909 5911 5912
5884 5884 5883 5883 5882 5882 5882 5881 5881 5880 5880 5880 5879 5879 5879 5879 5879 5878 5878 5878 5878 5878 5878 5878 5879 5879 5879 5880 5881 5882 5884 5886 5888 5890 5892 5894 5896 5899 5901 5903 5905 5907 5909
5883 5882 5882 5881 5881 5881 5880 5880 5879 5878 5878 5877 5877 5876 5876 5875 5875 5875 5874 5874 5874 5874 5874 5874 5874 5874 5875 5875 5876 5877 5879 5880 5882 5884 5886 5888 5891 5893 5896 5898 5901 5903 5905
5881 5881 5881 5880 5880 5880 5879 5878 5877 5877 5876 5875 5874 5874 5873 5872 5871 5871 5870 5870 5870 5869 5869 5869 5869 5870 5870 5870 5871 5872 5873 5875 5876 5878 5880 5882 5884 5887 5890 5892 5895 5898 5900
5880 5880 5880 5880 5879 5879 5878 5877 5876 5874 5874 5873 5872 5871 5870 5869 5868 5867 5866 5866 5865 5865 5864 5864 5864 5864 5865 5865 5866 5867 5868 5869 5871 5872 5874 5876 5878 5880 5883 5886 5889 5892 5894
5879 5879 5878 5878 5878 5877 5876 5875 5874 5873 5871 5870 5869 5868 5866 5865 5864 5863 5862 5861 5860 5860 5859 5859 5859 5859 5859 5859 5860 5861 5862 5863 5865 5866 5867 5869 5871 5873 5876 5879 5882 5885 5888
5878 5878 5877 5877 5876 5875 5874 5873 5872 5871 5869 5868 5866 5864 5863 5861 5860 5859 5858 5856 5855 5855 5854 5854 5853 5853 5853 5853 5854 5855 5856 5857 5858 5859 5861 5862 5864 5866 5869 5872 5875 5878 5881
5877 5876 5876 5875 5874 5873 5872 5871 5870 5868 5867 5865 5863 5861 5859 5857 5856 5854 5853 5851 5850 5849 5849 5848 5847 5847 5847 5847 5847 5848 5849 5850 5851 5852 5854 5855 5857 5860 5862 5865 5867 5870 5873
5875 5875 5874 5874 5873 5871 5870 5869 5867 5865 5864 5862 5860 5858 5856 5854 5851 5850 5848 5846 5844 5843 5842 5841 5841 5840 5840 5839 5840 5841 5841 5842 5843 5845 5846 5848 5850 5852 5854 5857 5859 5862 5865
5873 5873 5872 5871 5870 5869 5868 5866 5864 5862 5860 5858 5856 5854 5852 5849 5847 5845 5843 5840 5838 5837 5836 5835 5834 5833 5832 5832 5832 5833 5833 5834 5835 5836 5838 5840 5842 5844 5846 5849 5851 5854 5856
5871 5870 5870 5869 5867 5866 5864 5863 5861 5859 5857 5855 5852 5850 5847 5845 5842 5840 5837 5835 5833 5831 5829 5827 5826 5826 5825 5824 5824 5824 5824 5825 5826 5827 5829 5830 5832 5835 5837 5840 5842 5845 5848
5868 5868 5867 5865 5864 5862 5861 5859 5857 5855 5853 5850 5848 5845 5843 5840 5837 5835 5832 5829 5827 5825 5822 5820 5819 5818 5817 5816 5816 5815 5815 5816 5817 5818 5819 5821 5823 5825 5827 5830 5832 5835 5838
5865 5864 5863 5862 5860 5859 5857 5855 5852 5850 5848 5846 5843 5840 5837 5835 5832 5829 5826 5823 5821 5818 5815 5813 5811 5809 5809 5808 5807 5806 5806 5806 5806 5807 5809 5810 5812 5814 5817 5819 5822 5825 5828
5861 5860 5859 5858 5856 5854 5852 5850 5847 5845 5843 5840 5838 5835 5832 5829 5826 5823 5820 5818 5815 5812 5809 5806 5803 5801 5800 5799 5798 5797 5796 5796 5796 5797 5798 5799 5801 5803 5805 5808 5811 5814 5817
5857 5856 5854 5853 5851 5849 5847 5844 5842 5839 5837 5834 5832 5829 5826 5823 5820 5817 5814 5811 5808 5805 5802 5799 5796 5793 5791 5790 5789 5788 5787 5786 5786 5786 5787 5788 5789 5791 5794 5796 5799 5802 5805
5852 5851 5849 5847 5845 5843 5841 5838 5836 5833 5831 5828 5825 5822 5819 5816 5813 5810 5807 5803 5800 5797 5794 5791 5788 5785 5783 5781 5779 5778 5777 5776 5776 5775 5776 5776 5778 5779 5781 5784 5787 5790 5793
5846 5845 5843 5841 5839 5837 5834 5832 5829 5827 5824 5821 5818 5815 5812 5809 5806 5802 5799 5795 5792 5789 5786 5782 5779 5776 5774 5771 5770 5768 5767 5766 5765 5765 5765 5765 5766 5767 5769 5771 5774 5777 5780
5840 5838 5836 5834 5832 5830 5827 5825 5822 5819 5816 5814 5811 5807 5804 5801 5797 5794 5791 5787 5784 5780 5777 5773 5770 5767 5765 5762 5760 5759 5757 5756 5755 5754 5754 5754 5754 5756 5756 5758 5761 5764 5767
5833 5831 5829 5827 5825 5822 5820 5817 5814 5812 5809 5806 5802 5799 5796 5793 5789 5786 5782 5778 5775 5771 5767 5764 5761 5758 5755 5752 5750 5748 5747 5746 5745 5744 5743 5742 5742 5743 5744 5746 5748 5751 5754
5825 5823 5821 5819 5817 5814 5812 5809 5806 5803 5800 5797 5794 5791 5787 5784 5780 5776 5773 5769 5765 5761 5758 5754 5751 5748 5745 5742 5740 5738 5736 5735 5733 5732 5731 5731 5731 5731 5732 5733 5736 5738 5741
5817 5815 5813 5811 5808 5806 5803 5800 5797 5794 5791 5788 5785 5781 5778 5774 5770 5766 5763 5759 5755 5751 5747 5744 5741 5738 5735 5732 5729 5727 5725 5724 5723 5721 5720 5720 5719 5719 5720 5721 5723 5725 5727
5808 5806 5804 5802 5799 5796 5793 5790 5787 5784 5782 5779 5775 5772 5768 5764 5760 5756 5752 5749 5745 5741 5737 5733 5730 5727 5724 5721 5718 5716 5714 5712 5712 5710 5708 5708 5708 5707 5708 5709 5710 5712 5714
5799 5796 5794 5792 5789 5786 5783 5780 5776 5773 5771 5768 5765 5761 5757 5754 5750 5745 5741 5738 5734 5730 5726 5722 5719 5716 5713 5710 5707 5704 5702 5700 5699 5699 5697 5696 5695 5695 5696 5697 5697 5699 5701